Location: Unspecified
(0.0000°N, 0.0000°E)
Time: 14:34:11
(UTC+00:00)

Surcal 160 - Visible Passes

Search period start: 09 December 2025 00:00
Search period end: 19 December 2025 00:00
Orbit: 644 x 651 km, 69.9° (Epoch: 09 December)

Date Brightness Start Highest point End Pass type
(mag) Time Alt. Az. Time Alt. Az. Time Alt. Az.
09 Dec 6.2 04:10:07 10° SSW 04:14:44 80° ESE 04:19:20 10° NNE visible
10 Dec 9.1 02:59:31 10° SE 03:01:30 13° ESE 03:03:28 10° E visible
10 Dec 7.0 04:37:12 10° SW 04:46:24 - N 04:40:49 28° W visible
11 Dec 8.8 03:23:35 10° S 03:23:59 12° S 03:23:59 12° S visible
